Regional Weather Roundup
Issued by NWS Albany, NY

Home | Current Version | Previous Version | Text Only | Print | Product List | Glossary On
Versions: 1 2 3 4 5 6 7 8 9 10 11 12 13 14 15 16 17 18 19 20 21 22 23 24 25 26 27 28 29 30 31 32 33 34 35 36 37 38 39 40 41 42 43 44 45 46 47 48 49 50
000
ASUS41 KALY 071710
RWRALY

NEW YORK STATE HOURLY WEATHER ROUNDUP
NATIONAL WEATHER SERVICE ALBANY NY
100 PM EDT TUE JUL 07 2015

NOTE: "FAIR" INDICATES FEW OR NO CLOUDS BELOW 12,000 FEET WITH NO
SIGNIFICANT WEATHER AND/OR NO OBSTRUCTIONS TO VISIBILITY.

NYZ032-033-038>043-046>054-057>066-NYZ062>081-071800-
EAST


CITY           SKY/WX    TMP DP  RH WIND       PRES   REMARKS
ALBANY         PTSUNNY   82  70  66 S10       29.96F
GLENS FALLS    PTSUNNY   78  72  81 S7        29.96F
POUGHKEEPSIE   MOSUNNY   86  71  60 VRB7      29.97F HX  91
NEWBURGH       MOSUNNY   82  73  74 SW8       30.01F
MONTGOMERY     MOSUNNY   86  72  62 SW10      29.98F HX  92
WHITE PLAINS   MOSUNNY   81  73  76 S8        30.00F FOG
ISLIP          PTSUNNY   79  73  82 S10       30.02F
NEW YORK CITY  MOSUNNY   86  72  62 S13       29.99F HX  92
CENTRAL PARK   MOSUNNY   85  69  58 W8        30.02F
$$

NYZ005>009-017-018-044>046-055-056-071800-
CENTRAL


CITY           SKY/WX    TMP DP  RH WIND       PRES   REMARKS
FULTON         SUNNY     84  71  65 S5        29.90F
SYRACUSE       MOSUNNY   85  69  58 S8        29.90F
ROME           LGT RAIN  81  70  69 SW5       29.94F
ELMIRA         SUNNY     84  71  65 SW17      29.95F
BINGHAMTON     MOSUNNY   77  68  73 SW9       30.00F
MONTICELLO     CLOUDY    73  72  94 SW3       30.03F
$$

NYZ026>034-041>043-071800-
NORTH


CITY           SKY/WX    TMP DP  RH WIND       PRES   REMARKS
WATERTOWN      MOSUNNY   82  70  66 SW12      29.88F
FORT DRUM      NOT AVBL
MASSENA        PTSUNNY   83  70  64 SW14G23   29.86F
SARANAC LAKE   PTSUNNY   77  66  68 S15G22    29.95F
PLATTSBURGH    CLOUDY    78  69  73 SE12      29.90F
$$

NYZ001>004-010>016-019>021-071800-
WEST


CITY           SKY/WX    TMP DP  RH WIND       PRES   REMARKS
NIAGARA FALLS  PTSUNNY   82  69  64 SW22G29   29.86F
BUFFALO        PTSUNNY   84  67  56 SW15G24   29.89F
DUNKIRK        PTSUNNY   84  68  58 S22G35    29.89F
JAMESTOWN      CLOUDY    77  64  65 S14G20    29.98F
WELLSVILLE     MOSUNNY   79  63  57 SW10G17   30.03F
ROCHESTER      PTSUNNY   85  65  51 SW18G24   29.89F
PENN YAN       MOSUNNY   84  66  54 S12       29.94F
$$

             KEY
       WCI = WIND CHILL INDEX
       VSB = VISIBILITY
       HX  = HEAT INDEX
$$



USA.gov is the U.S. government's official web portal to all federal, state and local government web resources and services.